When you browse on this site, cookies collect data to enhance your experience and personalize the content and advertising you see.
Visit our Privacy Policy to learn more. By continuing to use the site, you agree to this use of cookies and data.
  • In Deutschland
  • Länderverzeichnis
  • Für 7 Tage
  • Wassertemperatur
  • Satellitenkarten
  • Wetterkarte
  • Widgets
  • user-avatar
    Anmelden

    Stündliche Wetter Höxter

    Heute, 16 Januar, Mittwoch

    Zeit Temperatur Niederschläge Wind Luftdruck Luftfeuchtigkeit
    00:00 +4°C° 0 mm 6 m/S 751 mmHg 87%
    01:00 +5°C° 0 mm 4 m/S 751 mmHg 88%
    02:00 +5°C° 0 mm 5 m/S 751 mmHg 87%
    03:00 +5°C° 0 mm 5 m/S 750 mmHg 86%
    04:00 +5°C° 0 mm 5 m/S 750 mmHg 86%
    05:00 +3°C° 0 mm 5 m/S 750 mmHg 86%
    06:00 +3°C° 0 mm 5 m/S 749 mmHg 86%
    07:00 +4°C° 0 mm 4 m/S 749 mmHg 88%
    08:00 +5°C° 0 mm 4 m/S 749 mmHg 86%
    09:00 +5°C° 0 mm 5 m/S 749 mmHg 85%
    10:00 +5°C° 0 mm 5 m/S 749 mmHg 83%
    11:00 +5°C° 0 mm 5 m/S 748 mmHg 81%
    12:00 +5°C° 0 mm 5 m/S 748 mmHg 79%
    13:00 +5°C° 0 mm 5 m/S 748 mmHg 78%
    14:00 +5°C° 0 mm 5 m/S 747 mmHg 78%
    15:00 +5°C° 0 mm 5 m/S 747 mmHg 78%
    16:00 +4°C° 0 mm 4 m/S 746 mmHg 77%
    17:00 +3°C° 0 mm 5 m/S 746 mmHg 78%
    18:00 +3°C° 0 mm 5 m/S 745 mmHg 79%
    19:00 +2°C° 0 mm 5 m/S 745 mmHg 80%
    20:00 +2°C° 0 mm 5 m/S 744 mmHg 80%
    21:00 +2°C° 0 mm 5 m/S 743 mmHg 79%
    22:00 +2°C° 0 mm 5 m/S 743 mmHg 78%
    23:00 +2°C° 0 mm 5 m/S 742 mmHg 78%

    Morgen, 17 Januar, Donnerstag

    Zeit Temperatur Niederschläge Wind Luftdruck Luftfeuchtigkeit
    00:00 +2°C° 0 mm 5 m/S 742 mmHg 78%
    01:00 +2°C° 0 mm 6 m/S 741 mmHg 77%
    02:00 +2°C° 0.5 mm 6 m/S 741 mmHg 79%
    03:00 +3°C° 0.5 mm 6 m/S 741 mmHg 81%
    04:00 +3°C° 0.5 mm 6 m/S 741 mmHg 83%
    05:00 +3°C° 0.2 mm 6 m/S 741 mmHg 84%
    06:00 +3°C° 0.2 mm 5 m/S 742 mmHg 86%
    07:00 +4°C° 0.2 mm 4 m/S 742 mmHg 88%
    08:00 +4°C° 0 mm 4 m/S 742 mmHg 87%
    09:00 +2°C° 0 mm 5 m/S 742 mmHg 85%
    10:00 +2°C° 0 mm 5 m/S 743 mmHg 84%
    11:00 +3°C° 0.2 mm 5 m/S 742 mmHg 82%
    12:00 +4°C° 0.2 mm 4 m/S 742 mmHg 80%
    13:00 +5°C° 0.2 mm 4 m/S 742 mmHg 78%
    14:00 +3°C° 1.4 mm 5 m/S 742 mmHg 79%
    15:00 +2°C° 1.4 mm 5 m/S 742 mmHg 81%
    16:00 +2°C° 1.4 mm 6 m/S 742 mmHg 83%
    17:00 +1°C° 0.1 mm 6 m/S 743 mmHg 80%
    18:00 0°C° 0.1 mm 5 m/S 744 mmHg 78%
    19:00 0°C° 0.1 mm 5 m/S 745 mmHg 75%
    20:00 -1°C° 0 mm 5 m/S 745 mmHg 76%
    21:00 -1°C° 0 mm 5 m/S 746 mmHg 76%
    22:00 -1°C° 0 mm 5 m/S 747 mmHg 77%
    23:00 -1°C° 0.1 mm 5 m/S 748 mmHg 76%

    übermorgen, 18 Januar, Freitag

    Zeit Temperatur Niederschläge Wind Luftdruck Luftfeuchtigkeit
    00:00 -2°C° 0.1 mm 6 m/S 748 mmHg 76%
    01:00 -2°C° 0.1 mm 6 m/S 749 mmHg 76%
    02:00 -2°C° 0 mm 5 m/S 750 mmHg 79%
    03:00 -2°C° 0 mm 4 m/S 751 mmHg 81%
    04:00 -2°C° 0 mm 2 m/S 751 mmHg 84%
    05:00 -2°C° 0 mm 2 m/S 752 mmHg 85%
    06:00 -2°C° 0 mm 2 m/S 753 mmHg 86%
    07:00 -2°C° 0 mm 2 m/S 754 mmHg 86%
    08:00 -2°C° 0 mm 2 m/S 754 mmHg 85%
    09:00 -1°C° 0 mm 2 m/S 755 mmHg 83%
    10:00 -1°C° 0 mm 2 m/S 756 mmHg 81%
    11:00 +1°C° 0 mm 2 m/S 756 mmHg 76%
    12:00 +2°C° 0 mm 2 m/S 756 mmHg 70%
    13:00 +3°C° 0 mm 2 m/S 756 mmHg 64%
    14:00 +3°C° 0 mm 2 m/S 756 mmHg 67%
    15:00 +2°C° 0 mm 2 m/S 756 mmHg 69%
    16:00 +3°C° 0 mm 1 m/S 756 mmHg 71%
    17:00 +2°C° 0 mm 1 m/S 756 mmHg 73%
    18:00 +1°C° 0 mm 1 m/S 756 mmHg 74%
    19:00 +1°C° 0 mm 1 m/S 756 mmHg 76%
    20:00 +1°C° 0 mm 1 m/S 756 mmHg 75%
    21:00 +1°C° 0 mm 1 m/S 757 mmHg 75%
    22:00 +1°C° 0 mm 1 m/S 757 mmHg 74%
    23:00 0°C° 0 mm 1 m/S 757 mmHg 75%

    19 Januar, Samstag

    Zeit Temperatur Niederschläge Wind Luftdruck Luftfeuchtigkeit
    00:00 0°C° 0 mm 1 m/S 756 mmHg 75%
    01:00 0°C° 0 mm 1 m/S 756 mmHg 76%
    02:00 0°C° 0 mm 1 m/S 756 mmHg 76%
    03:00 0°C° 0 mm 1 m/S 756 mmHg 77%
    04:00 -1°C° 0 mm 1 m/S 756 mmHg 77%
    05:00 -1°C° 0 mm 1 m/S 755 mmHg 77%
    06:00 -1°C° 0 mm 1 m/S 755 mmHg 77%
    07:00 -1°C° 0 mm 1 m/S 755 mmHg 78%
    08:00 -1°C° 0 mm 1 m/S 755 mmHg 75%
    09:00 0°C° 0 mm 1 m/S 755 mmHg 72%
    10:00 0°C° 0 mm 1 m/S 755 mmHg 69%
    11:00 -1°C° 0 mm 2 m/S 754 mmHg 62%
    12:00 +1°C° 0 mm 2 m/S 754 mmHg 56%
    13:00 +1°C° 0 mm 3 m/S 754 mmHg 49%
    14:00 +2°C° 0 mm 2 m/S 753 mmHg 51%
    15:00 +1°C° 0 mm 2 m/S 753 mmHg 54%
    16:00 +1°C° 0 mm 2 m/S 753 mmHg 56%
    17:00 -1°C° 0 mm 2 m/S 753 mmHg 59%
    18:00 -2°C° 0 mm 2 m/S 753 mmHg 63%
    19:00 -3°C° 0 mm 2 m/S 753 mmHg 66%
    20:00 -3°C° 0 mm 2 m/S 753 mmHg 67%
    21:00 -3°C° 0 mm 2 m/S 753 mmHg 67%
    22:00 -3°C° 0 mm 2 m/S 753 mmHg 68%
    23:00 -1°C° 0 mm 1 m/S 753 mmHg 69%

    20 Januar, Sonntag

    Zeit Temperatur Niederschläge Wind Luftdruck Luftfeuchtigkeit
    00:00 -1°C° 0 mm 1 m/S 753 mmHg 70%
    01:00 -2°C° 0 mm 1 m/S 752 mmHg 71%
    02:00 -2°C° 0 mm 1 m/S 752 mmHg 72%
    03:00 -2°C° 0 mm 1 m/S 752 mmHg 73%
    04:00 -2°C° 0 mm 1 m/S 752 mmHg 74%
    05:00 -2°C° 0 mm 1 m/S 752 mmHg 75%
    06:00 -2°C° 0 mm 1 m/S 752 mmHg 76%
    07:00 -2°C° 0 mm 1 m/S 753 mmHg 77%
    08:00 -2°C° 0 mm 1 m/S 753 mmHg 76%
    09:00 -1°C° 0 mm 1 m/S 753 mmHg 75%
    10:00 -1°C° 0 mm 1 m/S 754 mmHg 73%
    11:00 0°C° 0 mm 1 m/S 754 mmHg 70%
    12:00 -1°C° 0 mm 2 m/S 754 mmHg 67%
    13:00 +1°C° 0 mm 2 m/S 754 mmHg 63%
    14:00 +1°C° 0 mm 2 m/S 754 mmHg 67%
    15:00 +1°C° 0 mm 2 m/S 754 mmHg 70%
    16:00 -1°C° 0 mm 2 m/S 755 mmHg 73%
    17:00 0°C° 0 mm 1 m/S 755 mmHg 78%
    18:00 0°C° 0 mm 1 m/S 756 mmHg 82%
    19:00 -1°C° 0 mm 1 m/S 756 mmHg 87%
    20:00 -1°C° 0 mm 1 m/S 757 mmHg 87%
    21:00 -1°C° 0 mm 1 m/S 757 mmHg 87%
    22:00 -1°C° 0 mm 1 m/S 758 mmHg 88%
    23:00 -2°C° 0 mm 1 m/S 758 mmHg 87%

    21 Januar, Montag

    Zeit Temperatur Niederschläge Wind Luftdruck Luftfeuchtigkeit
    00:00 -2°C° 0 mm 1 m/S 758 mmHg 86%
    01:00 -2°C° 0 mm 1 m/S 759 mmHg 84%
    02:00 -2°C° 0 mm 1 m/S 759 mmHg 82%
    03:00 -2°C° 0 mm 1 m/S 759 mmHg 79%
    04:00 -2°C° 0 mm 1 m/S 759 mmHg 77%
    05:00 -2°C° 0 mm 1 m/S 759 mmHg 74%
    06:00 -2°C° 0 mm 1 m/S 759 mmHg 72%
    07:00 -2°C° 0 mm 1 m/S 759 mmHg 69%
    08:00 -2°C° 0 mm 1 m/S 760 mmHg 66%
    09:00 -1°C° 0 mm 1 m/S 760 mmHg 63%
    10:00 -1°C° 0 mm 1 m/S 761 mmHg 60%
    11:00 0°C° 0 mm 1 m/S 761 mmHg 60%
    12:00 +1°C° 0 mm 1 m/S 760 mmHg 60%
    13:00 +2°C° 0 mm 1 m/S 760 mmHg 60%
    14:00 +2°C° 0 mm 1 m/S 760 mmHg 64%
    15:00 +1°C° 0 mm 1 m/S 760 mmHg 69%
    16:00 +1°C° 0 mm 1 m/S 759 mmHg 73%
    17:00 0°C° 0 mm 1 m/S 759 mmHg 78%
    18:00 -1°C° 0 mm 1 m/S 759 mmHg 82%
    19:00 -1°C° 0 mm 1 m/S 759 mmHg 87%
    20:00 -2°C° 0 mm 1 m/S 759 mmHg 88%
    21:00 -2°C° 0 mm 1 m/S 759 mmHg 88%
    22:00 -2°C° 0 mm 1 m/S 759 mmHg 89%
    23:00 -2°C° 0 mm 1 m/S 758 mmHg 90%
    Mehr zeigen